Location: Innsbruck
(47.2657°N, 11.3914°E)
Time: 03:12:30
(UTC+02:00)

Envisat - Pass Details

Date: 11 February 2023
Orbit: 763 x 765 km, 98.2° (Epoch: 28 March)

Event Time Altitude Azimuth Distance (km) Brightness Sun altitude
Rises 03:23:41 0° 24° (NNE) 3,243 6.8 -40.9°
Reaches altitude 10° 03:26:25 10° 38° (NE) 2,311 6.0 -40.5°
Enters shadow 03:28:20 19° 56° (NE) 1,786 5.4 -40.2°
